Location: Street
(51.1247°N, 2.7429°W)
Time: 05:09:07
(UTC+00:00)

NUDT-PHONESAT - Visible Passes

Search period start: 23 March 2023 00:00
Search period end: 02 April 2023 01:00
Orbit: 284 x 289 km, 97.4° (Epoch: 22 March)

Date Brightness Start Highest point End Pass type
(mag) Time Alt. Az. Time Alt. Az. Time Alt. Az.
23 Mar ? 19:14:45 10° S 19:17:00 41° W 19:19:17 10° NNW visible
24 Mar ? 19:16:51 10° S 19:19:01 38° W 19:21:13 10° NNW visible
25 Mar ? 19:17:01 10° S 19:19:06 37° W 19:21:15 10° NNW visible
26 Mar ? 20:15:15 10° S 20:17:18 40° W 20:19:25 10° NNW visible
27 Mar ? 20:11:34 10° S 20:13:36 48° WSW 20:15:42 10° NNW visible
